57,28/09/2015 12:05,1443441912,59.73458,-3.41659,3,4,28/09/2015 12:05,1443441942,12.458,29,11.1,0,0,59.7512,-3.5011,3,5
58,28/09/2015 13:05,1443445512,59.73271,-3.48759,9,2,28/09/2015 13:05,1443445512,12.501,28,11.1,0,0,59.758,-3.5067,3,5
59,28/09/2015 14:05,1443449112,59.73271,-3.48759,4,3,28/09/2015 14:05,1443449114,12.501,28,11.1,0,0,59.7619,-3.5235,3,5
60,28/09/2015 15:05,1443452712,59.93696,-6.45882,179,3,28/09/2015 15:05,1443452743,12.458,28,11.1,0,0,59.7646,-3.5504,3,5
61,28/09/2015 16:05,1443456311,59.76177,-3.56301,2,2,28/09/2015 16:05,1443456303,12.458,28,11.1,0,0,59.7674,-3.5766,3,5
62,28/09/2015 17:05,1443459910,59.75983,-3.63408,4,3,28/09/2015 17:05,1443459942,12.501,26,11.1,0,0,59.7728,-3.5921,3,5
63,28/09/2015 18:05,1443463513,59.76368,-3.49193,2,4,28/09/2015 18:05,1443463512,12.415,26,11.1,0,0,59.7814,-3.5886,3,4
64,28/09/2015 19:05,1443467113,59.74967,-2.7771,63,2,28/09/2015 19:05,1443467142,12.372,26,11.1,0,0,59.7925,-3.5663,3,2
65,28/09/2015 20:05,1443470711,59.81274,-3.49627,3,2,28/09/2015 20:05,1443470712,12.329,26,11.1,0,0,59.8042,-3.5264,3,4
66,28/09/2015 21:05,1443474320,59.81462,-3.42509,3,5,28/09/2015 21:05,1443474326,12.372,28,11,0,0,59.8181,-3.4825,3,5
67,28/09/2015 22:05,1443477912,59.86906,-3.21548,5,2,28/09/2015 22:05,1443477906,12.329,28,11.1,0,0,59.8321,-3.4327,3,5
68,28/09/2015 23:05,1443481509,59.86549,-3.35807,2,3,28/09/2015 23:05,1443481510,12.329,28,11.1,0,0,59.8432,-3.3887,3,5
69,29/09/2015 00:05,1443485111,59.86549,-3.35807,4,3,29/09/2015 00:05,1443485103,12.329,28,11.1,0,0,59.8514,-3.3558,3,4
70,29/09/2015 01:05,1443488722,59.84746,-3.35807,4,2,29/09/2015 01:05,1443488712,12.286,26,11.1,0,0,59.8611,-3.3417,3,5
71,29/09/2015 02:05,1443492316,59.90008,-3.21949,612,2,29/09/2015 02:05,1443492312,12.2,26,11.1,0,0,59.8707,-3.3435,3,5
72,29/09/2015 03:05,1443495914,59.86729,-3.28678,3,2,29/09/2015 03:05,1443495912,12.2,26,11.1,0,0,59.8791,-3.3513,3,5
73,29/09/2015 04:05,1443499513,59.90675,-2.93384,68,2,29/09/2015 04:05,1443499507,12.2,26,11.1,0,0,59.8853,-3.3601,3,5
74,29/09/2015 05:05,1443503108,59.89651,-3.36226,2,3,29/09/2015 05:05,1443503158,12.243,30,11.1,0,0,59.8925,-3.3651,3,5
75,29/09/2015 06:06,1443506780,59.89651,-3.36226,4,3,29/09/2015 06:05,1443506743,12.243,30,11.1,0,0,59.9036,-3.3607,70,2
76,29/09/2015 07:05,1443510314,59.94734,-3.29499,2,1,29/09/2015 07:05,1443510314,12.2,30,11.1,0,0,59.9192,-3.3416,3,4
77,29/09/2015 08:07,1443514034,59.94911,-3.22352,3,3,29/09/2015 08:05,1443513922,12.2,30,11.1,0,0,59.9383,-3.3039,119,1
78,29/09/2015 09:05,1443517509,59.98189,-3.15597,6,4,29/09/2015 09:05,1443517500,12.2,34,11,0,0,59.9542,-3.2383,3,5
79,29/09/2015 10:05,1443521130,59.98189,-3.15597,5,3,29/09/2015 10:05,1443521108,12.2,34,11.1,0,0,59.9638,-3.1655,22,5
80,29/09/2015 11:05,1443524714,59.95253,-3.08053,7,2,29/09/2015 11:05,1443524700,12.2,34,11.1,0,0,59.9684,-3.0885,3,5
81,29/09/2015 12:05,1443528319,59.98685,-2.94118,3,3,29/09/2015 12:05,1443528311,12.2,34,11.1,0,0,59.969,-3.0303,3,5
82,29/09/2015 13:05,1443531910,59.98843,-2.86957,3,4,29/09/2015 13:05,1443531911,12.2,36,11,0,0,59.9679,-2.9936,3,5
83,29/09/2015 14:05,1443535514,59.98523,-3.01279,2,2,29/09/2015 14:05,1443535511,12.2,36,11.1,0,0,59.9689,-2.9807,3,5
84,29/09/2015 15:05,1443539113,60.23431,-6.95471,244,3,29/09/2015 15:05,1443539102,12.2,36,11.1,0,0,59.9732,-2.9856,3,5
85,29/09/2015 16:05,1443542720,59.98685,-2.94118,2,2,29/09/2015 16:05,1443542712,12.157,36,11.1,0,0,59.984,-3.0034,3,5
86,29/09/2015 17:05,1443546310,59.98843,-2.86957,5,3,29/09/2015 17:05,1443546305,12.114,32,11,0,0,59.9964,-3.0174,3,5
87,29/09/2015 18:05,1443549921,60.03588,-2.94487,5,2,29/09/2015 18:05,1443549909,12.114,32,11.1,0,0,60.0083,-3.0191,3,5
88,29/09/2015 19:05,1443553521,60.00481,-2.94118,10,3,29/09/2015 19:05,1443553511,12.114,32,11.1,0,0,60.0209,-3.001,3,5
89,29/09/2015 20:05,1443557124,60.00481,-2.94118,3,3,29/09/2015 20:05,1443557111,12.114,32,11.1,0,0,60.0308,-2.9627,3,5
90,29/09/2015 21:05,1443560723,60.03746,-2.87316,4,2,29/09/2015 21:05,1443560703,12.114,34,11.1,0,0,60.0352,-2.9125,3,3
91,29/09/2015 22:05,1443564312,60.039,-2.80145,7,3,29/09/2015 22:05,1443564333,12.114,34,11.1,0,0,60.0311,-2.8489,3,5
92,29/09/2015 23:05,1443567910,60.0405,-2.72973,4,2,29/09/2015 23:05,1443567936,12.114,34,11.1,0,0,60.0199,-2.786,3,3
93,30/09/2015 00:05,1443571533,60.01088,-2.65467,4,2,30/09/2015 00:05,1443571512,12.114,34,11.1,0,0,60.006,-2.7495,24,2
94,30/09/2015 01:05,1443575114,60.0405,-2.72973,6,1,30/09/2015 01:05,1443575112,12.114,37,11,0,0,59.9955,-2.7386,3,4
95,30/09/2015 02:05,1443578711,59.887,-5.80311,186,2,30/09/2015 02:05,1443578732,12.114,37,11.1,0,0,59.9915,-2.7511,3,4
96,30/09/2015 03:05,1443582312,60.00792,-2.79794,2,2,30/09/2015 03:05,1443582312,12.114,37,11.1,0,0,59.9946,-2.7792,3,5
97,30/09/2015 04:06,1443585979,59.87421,-5.36917,168,3,30/09/2015 04:05,1443585913,12.114,37,11.1,0,0,60.0046,-2.8202,73,5
98,30/09/2015 05:05,1443589512,59.98997,-2.79794,6,2,30/09/2015 05:05,1443589542,12.114,35,11,0,0,60.0202,-2.8615,3,1
99,30/09/2015 06:05,1443593120,60.03091,-3.15992,20,2,30/09/2015 06:05,1443593111,12.114,35,11.1,0,0,60.0372,-2.8833,3,5
100,30/09/2015 07:05,1443596725,60.03746,-2.87316,3,2,30/09/2015 07:05,1443596758,12.114,35,11.1,0,0,60.0547,-2.8832,3,2
101,30/09/2015 08:05,1443600313,60.03746,-2.87316,4,2,30/09/2015 08:05,1443600312,12.157,35,11.1,0,0,60.0685,-2.8599,3,5
102,30/09/2015 09:05,1443603921,60.08801,-2.80496,3,2,30/09/2015 09:05,1443603941,12.157,35,11.1,0,0,60.0763,-2.8151,3,3
103,30/09/2015 10:05,1443607513,60.04196,-2.658,12,3,30/09/2015 10:05,1443607541,12.157,35,11.1,0,0,60.0743,-2.7571,3,5
104,30/09/2015 11:05,1443611110,60.04339,-2.58626,2,3,30/09/2015 11:05,1443611112,12.114,35,11.1,0,0,60.0634,-2.7014,3,5
105,30/09/2015 12:05,1443614711,60.04196,-2.658,2,2,30/09/2015 12:05,1443614712,12.114,35,11.1,0,0,60.0488,-2.6586,3,5
106,30/09/2015 13:06,1443618374,60.04339,-2.58626,7,2,30/09/2015 13:05,1443618311,12.114,37,11.1,0,0,60.0338,-2.6339,65,5
107,30/09/2015 14:05,1443621919,60.04477,-2.51451,11,2,30/09/2015 14:05,1443621905,12.114,37,11.1,0,0,60.022,-2.6325,3,5
108,30/09/2015 15:05,1443625521,59.99435,-2.58302,4,2,30/09/2015 15:05,1443625512,12.071,37,11.1,0,0,60.0166,-2.6497,3,5
109,30/09/2015 16:05,1443629112,60.01088,-2.65467,3,2,30/09/2015 16:05,1443629144,12.071,37,11.1,0,0,60.0172,-2.683,3,5
110,30/09/2015 17:05,1443632709,60.0123,-2.58302,7,2,30/09/2015 17:05,1443632707,12.071,47,11,0,0,60.025,-2.7253,3,5
111,30/09/2015 18:05,1443636311,60.0405,-2.72973,3,2,30/09/2015 18:05,1443636310,12.071,47,11.1,0,0,60.0369,-2.7582,3,5
112,30/09/2015 19:06,1443639981,60.12351,-2.59275,10,3,30/09/2015 19:05,1443639933,12.071,47,11.1,0,0,60.0508,-2.7733,65,2
113,30/09/2015 20:05,1443643510,60.07306,-2.66133,3,3,30/09/2015 20:05,1443643510,12.071,47,11.1,0,0,60.0613,-2.7643,3,5
114,30/09/2015 21:05,1443647107,60.0405,-2.72973,4,2,30/09/2015 21:05,1443647110,12.028,32,11,0,0,60.0672,-2.734,3,3
115,30/09/2015 22:05,1443650710,60.09098,-2.66133,12,3,30/09/2015 22:05,1443650744,12.028,32,11,0,0,60.0657,-2.6873,3,5
116,30/09/2015 23:05,1443654311,60.04477,-2.51451,2,3,30/09/2015 23:05,1443654321,12.028,32,11.1,0,0,60.0555,-2.6356,3,5
117,01/10/2015 00:05,1443657911,60.04612,-2.44276,3,2,01/10/2015 00:05,1443657913,12.028,32,11.1,0,0,60.0398,-2.5908,3,5
118,01/10/2015 01:06,1443661573,60.01369,-2.51136,4,2,01/10/2015 01:05,1443661511,12.028,38,11,0,0,60.0232,-2.5632,54,4
119,01/10/2015 02:05,1443665126,59.80923,-7.58521,297,3,01/10/2015 02:05,1443665111,12.028,38,11.1,0,0,60.0081,-2.5541,19,5
120,01/10/2015 03:05,1443668708,59.96465,-2.50822,6,2,01/10/2015 03:05,1443668743,12.028,38,11.1,0,0,59.9989,-2.5677,3,3
121,01/10/2015 04:05,1443672310,59.96327,-2.57979,3,2,01/10/2015 04:05,1443672311,12.028,38,11.1,0,0,59.9967,-2.5989,3,5
122,01/10/2015 05:05,1443675910,60.0123,-2.58302,3,2,01/10/2015 05:05,1443675907,12.028,31,11,0,0,60.0007,-2.6402,3,3
123,01/10/2015 06:05,1443679523,59.93154,-4.29986,114,2,01/10/2015 06:05,1443679513,12.028,31,11.1,0,0,60.0085,-2.6801,18,5
124,01/10/2015 07:05,1443683107,60.07159,-2.73315,6,3,01/10/2015 07:05,1443683110,12.028,31,11.1,0,0,60.0184,-2.7106,3,5
125,01/10/2015 08:05,1443686708,60.06007,-1.50933,809,3,01/10/2015 08:05,1443686712,12.028,31,11.1,0,0,60.0278,-2.7226,3,3
126,01/10/2015 09:05,1443690310,60.04196,-2.658,2,3,01/10/2015 09:05,1443690344,12.028,34,11,0,0,60.0337,-2.7135,3,5
127,01/10/2015 10:05,1443693924,60.0405,-2.72973,4,3,01/10/2015 10:05,1443693938,12.028,34,11,0,0,60.0344,-2.6862,18,5
128,01/10/2015 11:05,1443697511,60.01088,-2.65467,2,2,01/10/2015 11:05,1443697510,12.028,34,11.1,0,0,60.0295,-2.6464,3,5
129,01/10/2015 12:05,1443701109,60.0123,-2.58302,3,3,01/10/2015 12:05,1443701110,12.028,34,11,0,0,60.0203,-2.6042,3,5
130,01/10/2015 13:05,1443704720,59.99573,-2.51136,4,2,01/10/2015 13:05,1443704718,12.028,42,11,0,0,60.0072,-2.5649,3,5
131,01/10/2015 14:05,1443708317,59.966,-2.43665,5,3,01/10/2015 14:05,1443708344,12.028,42,11.1,0,0,59.9949,-2.5452,3,1
132,01/10/2015 15:05,1443711920,59.99707,-2.4397,3,2,01/10/2015 15:05,1443711910,12.028,42,11.1,0,0,59.9871,-2.5441,3,4
133,01/10/2015 16:05,1443715515,59.99573,-2.51136,3,2,01/10/2015 16:05,1443715510,12.028,42,11.1,0,0,59.9868,-2.5584,3,5
134,01/10/2015 17:05,1443719108,60.0123,-2.58302,3,3,01/10/2015 17:05,1443719108,12.028,41,11,0,0,59.9923,-2.5839,3,3
135,01/10/2015 18:05,1443722719,59.99573,-2.51136,2,315,01/10/2015 18:05,1443722709,12.028,41,11.1,0,0,60.0022,-2.609,3,5
136,01/10/2015 19:05,1443726310,60.01369,-2.51136,4,2,01/10/2015 19:05,1443726311,12.028,41,11,0,0,60.0145,-2.6243,3,5
137,01/10/2015 20:05,1443729918,60.01088,-2.65467,2,1,01/10/2015 20:05,1443729939,12.028,41,11.1,0,0,60.0262,-2.6241,3,5
138,01/10/2015 21:05,1443733511,60.04477,-2.51451,3,5,01/10/2015 21:05,1443733513,12.028,40,11,0,0,60.0347,-2.6068,3,5
139,01/10/2015 22:05,1443737104,60.04612,-2.44276,2,3,01/10/2015 22:05,1443737136,12.028,40,11.1,0,0,60.0387,-2.5745,3,5
140,01/10/2015 23:05,1443740708,60.04477,-2.51451,3,2,01/10/2015 23:05,1443740759,12.028,40,11.1,0,0,60.0353,-2.535,3,2
141,02/10/2015 00:05,1443744337,60.04477,-2.51451,4,2,02/10/2015 00:05,1443744320,12.028,40,11.1,0,0,60.0256,-2.4929,21,1
142,02/10/2015 01:05,1443747906,59.99707,-2.4397,6,2,02/10/2015 01:05,1443747915,11.985,34,11,0,0,60.013,-2.4531,3,3
143,02/10/2015 02:05,1443751507,60.01634,-2.36803,7,2,02/10/2015 02:05,1443751512,11.985,34,11,0,0,60.0001,-2.4269,3,5
144,02/10/2015 03:05,1443755109,60.01634,-2.36803,5,3,02/10/2015 03:05,1443755113,11.985,34,11.1,0,0,59.99,-2.4154,3,5
145,02/10/2015 04:05,1443758730,59.9673,-2.36506,4,2,02/10/2015 04:05,1443758748,11.985,34,11.1,0,0,59.9863,-2.4233,24,4
146,02/10/2015 05:05,1443762324,59.966,-2.43665,2,2,02/10/2015 05:05,1443762321,11.942,29,11,0,0,59.9886,-2.444,18,5
147,02/10/2015 06:05,1443765945,59.99707,-2.4397,3,2,02/10/2015 06:05,1443765922,11.942,29,11,0,0,59.9958,-2.471,40,4
148,02/10/2015 07:05,1443769509,60.01503,-2.4397,8,5,02/10/2015 07:05,1443769534,11.942,29,11.1,0,0,60.0065,-2.4967,3,5
149,02/10/2015 08:07,1443773262,60.01503,-2.4397,3,3,02/10/2015 08:05,1443773103,11.942,29,11,0,0,60.0172,-2.5108,144,4
150,02/10/2015 09:05,1443776742,60.04612,-2.44276,5,2,02/10/2015 09:05,1443776738,11.942,35,11,0,0,60.0267,-2.5119,19,5
151,02/10/2015 10:05,1443780325,59.98778,-0.43025,139,2,02/10/2015 10:05,1443780337,11.942,35,11,0,0,60.0324,-2.5006,18,5
152,02/10/2015 11:05,1443783928,60.04612,-2.44276,3,2,02/10/2015 11:05,1443783907,11.942,35,11,0,0,60.0317,-2.4759,19,4
153,02/10/2015 12:05,1443787511,60.01634,-2.36803,4,2,02/10/2015 12:05,1443787559,11.985,35,11.1,0,0,60.025,-2.4435,3,5
154,02/10/2015 13:05,1443791113,60.0176,-2.29634,3,3,02/10/2015 13:05,1443791124,11.985,36,11,0,0,60.0148,-2.4151,3,5
155,02/10/2015 14:05,1443794710,60.01503,-2.4397,3,2,02/10/2015 14:05,1443794711,11.985,36,11,0,0,60.0021,-2.3939,3,5
156,02/10/2015 15:05,1443798311,60.01634,-2.36803,12,2,02/10/2015 15:05,1443798311,11.942,36,11,0,0,59.9924,-2.3865,3,4
157,02/10/2015 16:05,1443801912,59.96856,-2.29347,3,2,02/10/2015 16:05,1443801911,11.942,36,11,0,0,59.988,-2.3954,3,5
158,02/10/2015 17:05,1443805510,59.96856,-2.29347,2,4,02/10/2015 17:05,1443805507,11.942,35,11,0,0,59.9897,-2.4183,3,5
159,02/10/2015 18:05,1443809135,60.01503,-2.4397,2,2,02/10/2015 18:05,1443809107,11.942,35,11,0,0,59.9968,-2.4493,19,5
160,02/10/2015 19:05,1443812728,60.19776,0.21648,171,2,02/10/2015 19:05,1443812734,11.942,35,11,0,0,60.0081,-2.4821,3,1
161,02/10/2015 20:05,1443816326,60.01369,-2.51136,3,2,02/10/2015 20:05,1443816303,11.942,35,11,0,0,60.0222,-2.5096,18,5
162,02/10/2015 21:05,1443819928,60.04612,-2.44276,4,2,02/10/2015 21:05,1443819944,11.942,28,11,0,0,60.0334,-2.5207,21,5
163,02/10/2015 22:05,1443823516,60.04477,-2.51451,4,2,02/10/2015 22:05,1443823513,11.942,28,11,0,0,60.0424,-2.5178,3,5
164,02/10/2015 23:05,1443827111,60.04612,-2.44276,6,2,02/10/2015 23:05,1443827112,11.942,28,11.1,0,0,60.0477,-2.5006,3,4
165,03/10/2015 00:05,1443830712,60.04612,-2.44276,7,4,03/10/2015 00:05,1443830713,11.942,28,11,0,0,60.0463,-2.4745,3,5
166,03/10/2015 01:05,1443834313,60.04612,-2.44276,8,2,03/10/2015 01:05,1443834314,11.942,33,11,0,0,60.0396,-2.4448,3,1
167,03/10/2015 02:05,1443837920,60.04742,-2.37099,3,2,03/10/2015 02:05,1443837907,11.942,33,11,0,0,60.0289,-2.4171,3,4
168,03/10/2015 03:05,1443841511,60.01503,-2.4397,2,2,03/10/2015 03:05,1443841512,11.942,33,11,0,0,60.0194,-2.4008,3,5
169,03/10/2015 04:05,1443845159,59.99707,-2.4397,11,3,03/10/2015 04:05,1443845108,11.942,33,11,0,0,60.0135,-2.3963,51,2
170,03/10/2015 05:05,1443848709,59.99838,-2.36803,9,2,03/10/2015 05:05,1443848743,11.942,36,11,0,0,60.012,-2.4043,3,5
171,03/10/2015 06:05,1443852310,60.04869,-2.29922,5,2,03/10/2015 06:05,1443852333,11.942,36,11.1,0,0,60.0153,-2.4217,3,5
172,03/10/2015 07:05,1443855910,60.01503,-2.4397,3,2,03/10/2015 07:05,1443855944,11.942,36,11,0,0,60.0228,-2.4436,3,5
173,03/10/2015 08:05,1443859511,60.06534,-3.02034,84,2,03/10/2015 08:05,1443859512,11.942,36,11,0,0,60.0332,-2.4645,3,5
174,03/10/2015 09:05,1443863110,60.04612,-2.44276,3,2,03/10/2015 09:05,1443863114,11.942,32,11,0,0,60.0449,-2.4746,3,5
175,03/10/2015 10:05,1443866721,59.95581,-0.64455,137,2,03/10/2015 10:05,1443866707,11.942,32,11,0,0,60.055,-2.473,3,5
176,03/10/2015 11:05,1443870311,60.04742,-2.37099,2,2,03/10/2015 11:05,1443870313,11.942,32,11,0,0,60.0618,-2.4564,3,5
177,03/10/2015 12:05,1443873912,60.04612,-2.44276,5,2,03/10/2015 12:05,1443873908,11.985,32,11,0,0,60.0635,-2.4306,3,5
178,03/10/2015 13:05,1443877511,60.04477,-2.51451,11,2,03/10/2015 13:05,1443877530,11.942,31,11,0,0,60.0598,-2.3972,3,5
179,03/10/2015 14:05,1443881126,60.09895,-2.23024,25,2,03/10/2015 14:05,1443881112,11.985,31,11,0,0,60.0517,-2.3661,20,5
180,03/10/2015 15:05,1443884719,60.09772,-2.30211,6,3,03/10/2015 15:05,1443884711,11.942,31,11,0,0,60.0418,-2.3419,3,5
181,03/10/2015 16:05,1443888313,60.0176,-2.29634,4,2,03/10/2015 16:05,1443888308,11.942,31,11,0,0,60.0336,-2.3296,3,5
182,03/10/2015 17:05,1443891909,60.04992,-2.22745,5,3,03/10/2015 17:05,1443891930,11.942,27,11,0,0,60.0305,-2.3306,3,5
183,03/10/2015 18:05,1443895511,60.04742,-2.37099,4,2,03/10/2015 18:05,1443895511,11.942,27,11,0,0,60.0324,-2.3415,3,5
184,03/10/2015 19:05,1443899113,60.01634,-2.36803,8,2,03/10/2015 19:05,1443899159,11.942,27,11,0,0,60.0389,-2.3578,3,3
185,03/10/2015 20:05,1443902711,60.04869,-2.29922,3,3,03/10/2015 20:05,1443902711,11.942,27,11,0,0,60.0488,-2.3733,3,5
186,03/10/2015 21:05,1443906316,60.09772,-2.30211,5,2,03/10/2015 21:05,1443906311,11.942,34,11,0,0,60.06,-2.3859,3,2
187,03/10/2015 22:05,1443909911,60.09645,-2.37397,8,2,03/10/2015 22:05,1443909930,11.942,34,11,0,0,60.0707,-2.3897,3,5
188,03/10/2015 23:05,1443913511,60.09772,-2.30211,3,3,03/10/2015 23:05,1443913517,11.942,34,11,0,0,60.0789,-2.3824,3,5
189,04/10/2015 00:05,1443917143,60.09772,-2.30211,2,1,04/10/2015 00:05,1443917141,11.942,34,11,0,0,60.0829,-2.3664,32,5
190,04/10/2015 01:06,1443920808,60.09772,-2.30211,4,2,04/10/2015 01:05,1443920711,11.942,29,11,0,0,60.0816,-2.345,89,5
191,04/10/2015 02:05,1443924336,60.04869,-2.29922,8,2,04/10/2015 02:05,1443924309,11.942,29,11,0,0,60.0759,-2.3207,27,4
192,04/10/2015 03:05,1443927919,60.04992,-2.22745,10,2,04/10/2015 03:05,1443927912,11.942,29,11,0,0,60.0675,-2.2982,3,5
193,04/10/2015 04:05,1443931507,60.04992,-2.22745,4,2,04/10/2015 04:05,1443931537,11.942,29,11,0,0,60.0599,-2.2857,3,5
194,04/10/2015 05:05,1443935143,60.04992,-2.22745,3,2,04/10/2015 05:05,1443935146,11.942,32,11,0,0,60.0549,-2.2849,33,5
195,04/10/2015 06:05,1443938710,60.04992,-2.22745,5,2,04/10/2015 06:05,1443938710,11.942,32,11,0,0,60.0545,-2.2923,3,5
196,04/10/2015 07:05,1443942311,60.04869,-2.29922,2,2,04/10/2015 07:05,1443942317,11.942,32,11,0,0,60.0591,-2.3074,3,3
197,04/10/2015 08:05,1443945931,60.09895,-2.23024,4,4,04/10/2015 08:05,1443945908,11.942,32,11,0,0,60.0681,-2.3252,22,5
198,04/10/2015 09:05,1443949511,60.09895,-2.23024,2,2,04/10/2015 09:05,1443949514,11.942,25,11,0,0,60.0799,-2.3408,3,5
199,04/10/2015 10:05,1443953121,60.10129,-2.08649,68,2,04/10/2015 10:05,1443953142,11.985,25,11,0,0,60.0934,-2.3514,3,5
200,04/10/2015 11:05,1443956721,60.09645,-2.37397,2,2,04/10/2015 11:05,1443956712,12.028,25,11,0,0,60.1064,-2.3545,3,5
201,04/10/2015 12:05,1443960311,60.09772,-2.30211,3,2,04/10/2015 12:05,1443960300,12.028,25,11,0,0,60.1161,-2.3526,3,5
202,04/10/2015 13:05,1443963914,60.17784,-2.3079,5,2,04/10/2015 13:05,1443963907,12.028,27,11,0,0,60.1197,-2.3484,3,2
203,04/10/2015 14:05,1443967509,60.09772,-2.30211,10,2,04/10/2015 14:05,1443967542,12.028,27,11,0,0,60.1189,-2.3422,3,5
204,04/10/2015 15:05,1443971112,60.09772,-2.30211,4,6,04/10/2015 15:05,1443971107,12.028,27,11,0,0,60.1147,-2.3354,3,5
205,04/10/2015 16:05,1443974711,60.12756,-2.37695,6,1,04/10/2015 16:05,1443974742,11.985,27,11,0,0,60.111,-2.3324,3,1
206,04/10/2015 17:05,1443978311,60.12883,-2.305,3,2,04/10/2015 17:05,1443978312,11.985,24,11,0,0,60.1085,-2.3362,3,5
207,04/10/2015 18:05,1443981910,60.12756,-2.37695,5,2,04/10/2015 18:05,1443981942,11.942,24,11,0,0,60.1087,-2.3475,3,5
208,04/10/2015 19:05,1443985512,60.09772,-2.30211,2,2,04/10/2015 19:05,1443985507,11.942,24,11,0,0,60.1121,-2.3643,3,5
209,04/10/2015 20:05,1443989108,60.12756,-2.37695,2,3,04/10/2015 20:05,1443989112,11.942,24,11,0,0,60.1186,-2.3854,3,5
210,04/10/2015 21:05,1443992723,60.12756,-2.37695,4,2,04/10/2015 21:05,1443992742,11.942,25,11,0,0,60.127,-2.4062,3,5
211,04/10/2015 22:05,1443996310,60.14544,-2.37695,2,3,04/10/2015 22:05,1443996324,11.899,25,11,0,0,60.136,-2.4232,3,2
212,04/10/2015 23:05,1443999912,60.17525,-2.45197,4,2,04/10/2015 23:05,1443999942,11.942,25,11,0,0,60.1438,-2.4337,3,5
213,05/10/2015 00:05,1444003512,60.17525,-2.45197,3,2,05/10/2015 00:05,1444003513,11.899,25,11,0,0,60.1495,-2.4372,3,5
214,05/10/2015 01:05,1444007122,60.17784,-2.3079,10,2,05/10/2015 01:05,1444007112,11.899,31,11,0,0,60.1532,-2.4334,3,4
215,05/10/2015 02:05,1444010708,60.17525,-2.45197,4,3,05/10/2015 02:05,1444010706,11.899,31,11,0,0,60.1541,-2.4242,3,5
216,05/10/2015 03:05,1444014309,60.17784,-2.3079,7,2,05/10/2015 03:05,1444014313,11.899,31,11,0,0,60.152,-2.4107,3,5
217,05/10/2015 04:05,1444017913,60.14672,-2.305,3,2,05/10/2015 04:05,1444017912,11.899,31,11,0,0,60.1481,-2.3975,3,5
218,05/10/2015 05:05,1444021510,60.12625,-2.44889,3,3,05/10/2015 05:05,1444021512,11.899,28,11,0,0,60.1445,-2.3898,3,5
219,05/10/2015 06:05,1444025124,60.12756,-2.37695,3,2,05/10/2015 06:05,1444025106,11.899,28,11,0,0,60.1414,-2.3871,3,4
220,05/10/2015 07:05,1444028720,60.17784,-2.3079,9,2,05/10/2015 07:05,1444028704,11.899,28,11,0,0,60.1412,-2.392,3,2
221,05/10/2015 08:07,1444032442,60.17657,-2.37994,4,3,05/10/2015 08:05,1444032313,11.942,28,11,0,0,60.1432,-2.3998,133,5
222,05/10/2015 09:05,1444035910,60.12756,-2.37695,2,3,05/10/2015 09:05,1444035911,11.985,30,11,0,0,60.147,-2.41,3,5
223,05/10/2015 10:05,1444039528,60.29089,-4.63741,145,4,05/10/2015 10:05,1444039511,11.985,30,11,0,0,60.1529,-2.421,18,3
224,05/10/2015 11:05,1444043114,60.17525,-2.45197,4,3,05/10/2015 11:05,1444043113,12.028,30,11,0,0,60.1594,-2.4285,3,5
225,05/10/2015 12:05,1444046710,60.10551,-1.7989,127,3,05/10/2015 12:05,1444046742,12.028,30,11,0,0,60.1654,-2.4327,3,5
226,05/10/2015 13:05,1444050321,60.14544,-2.37695,5,6,05/10/2015 13:05,1444050338,12.028,38,11,0,0,60.1707,-2.4322,3,2
227,05/10/2015 14:05,1444053910,60.11273,-1.15152,95,3,05/10/2015 14:05,1444053925,12.028,38,11,0,0,60.1749,-2.4244,3,5
228,05/10/2015 15:05,1444057527,60.17657,-2.37994,8,3,05/10/2015 15:05,1444057512,12.028,38,11,0,0,60.1766,-2.4096,18,4
229,05/10/2015 16:06,1444061183,60.17784,-2.3079,3,2,05/10/2015 16:05,1444061111,12.028,38,11,0,0,60.1761,-2.3929,63,5
230,05/10/2015 17:05,1444064746,60.20771,-2.38294,6,3,05/10/2015 17:05,1444064714,12.028,32,11,0,0,60.1732,-2.3741,36,5
231,05/10/2015 18:05,1444068312,60.17657,-2.37994,2,2,05/10/2015 18:05,1444068314,12.028,32,11,0,0,60.1717,-2.3665,3,5
232,05/10/2015 19:05,1444071937,60.12077,-3.96252,151,2,05/10/2015 19:05,1444071933,12.028,32,11,0,0,60.1708,-2.3599,18,3
233,05/10/2015 20:05,1444075526,60.14672,-2.305,3,2,05/10/2015 20:05,1444075514,12.028,32,11,0,0,60.1726,-2.3576,18,5
234,05/10/2015 21:05,1444079136,60.23744,-1.58913,78,2,05/10/2015 21:05,1444079109,11.985,31,11,0,0,60.178,-2.3632,19,5
235,05/10/2015 22:05,1444082712,60.22555,-2.38294,3,2,05/10/2015 22:05,1444082748,11.985,31,11,0,0,60.1871,-2.3704,3,5
236,05/10/2015 23:05,1444086310,60.27428,-1.0127,102,2,05/10/2015 23:05,1444086330,11.985,31,11,0,0,60.1959,-2.3786,3,5
237,06/10/2015 00:05,1444089912,60.2567,-2.38594,5,2,06/10/2015 00:05,1444089929,11.985,31,11,0,0,60.2074,-2.3839,3,5
238,06/10/2015 01:05,1444093512,60.25798,-2.31372,14,2,06/10/2015 01:05,1444093500,11.942,37,11,0,0,60.2178,-2.387,3,5
239,06/10/2015 02:05,1444097108,60.22683,-2.31081,2,2,06/10/2015 02:05,1444097110,11.942,37,11,0,0,60.2251,-2.3857,3,5
240,06/10/2015 03:05,1444100709,60.56346,2.19137,265,2,06/10/2015 03:05,1444100727,11.942,37,11,0,0,60.23,-2.3782,3,5
241,06/10/2015 04:06,1444104380,60.20899,-2.31081,6,2,06/10/2015 04:05,1444104304,11.942,37,11,0,0,60.2331,-2.367,72,5
242,06/10/2015 05:05,1444107912,60.22807,-2.23867,15,2,06/10/2015 05:05,1444107909,11.985,33,11,0,0,60.2323,-2.3572,3,5
243,06/10/2015 06:05,1444111512,60.25922,-2.24149,3,2,06/10/2015 06:05,1444111513,12.028,33,11,0,0,60.2329,-2.3449,3,5
244,06/10/2015 07:05,1444115131,60.20899,-2.31081,4,3,06/10/2015 07:05,1444115112,12.028,33,11,0,0,60.2339,-2.3326,22,5
245,06/10/2015 08:05,1444118712,60.22683,-2.31081,3,2,06/10/2015 08:05,1444118712,12.028,33,11,0,0,60.2349,-2.3255,3,4
246,06/10/2015 09:05,1444122311,60.25798,-2.31372,3,2,06/10/2015 09:05,1444122326,12.028,31,11,0,0,60.2374,-2.3217,3,5
247,06/10/2015 10:05,1444125911,60.36836,-4.72146,159,2,06/10/2015 10:05,1444125915,12.028,31,11,0,0,60.2385,-2.3247,3,5
248,06/10/2015 11:05,1444129509,60.25922,-2.24149,2,2,06/10/2015 11:05,1444129508,12.028,31,11,0,0,60.2415,-2.3297,3,5
249,06/10/2015 12:05,1444133111,60.31288,-3.47699,94,2,06/10/2015 12:05,1444133141,12.028,31,11,0,0,60.2467,-2.335,3,5
250,06/10/2015 13:06,1444136767,60.25922,-2.24149,6,2,06/10/2015 13:05,1444136721,12.028,34,11,0,0,60.2532,-2.3373,51,2
251,06/10/2015 14:05,1444140348,60.34403,-3.48138,124,2,06/10/2015 14:05,1444140312,12.028,34,11,0,0,60.2584,-2.3355,39,5
252,06/10/2015 15:05,1444143913,60.30695,-2.31664,7,2,06/10/2015 15:05,1444143911,12.028,34,11,0,0,60.2625,-2.3289,3,3
253,06/10/2015 16:05,1444147523,60.25798,-2.31372,13,3,06/10/2015 16:05,1444147510,12.028,34,11,0,0,60.2651,-2.3203,3,5
254,06/10/2015 17:05,1444151110,60.30819,-2.24432,5,5,06/10/2015 17:05,1444151126,12.028,42,11,0,0,60.2654,-2.3113,3,5
255,06/10/2015 18:05,1444154711,60.19776,0.21648,156,2,06/10/2015 18:05,1444154722,12.028,42,11,0,0,60.2642,-2.3054,3,5